Regional Weather Roundup
Issued by NWS San Angelo, TX

Home | Current Version | Previous Version | Text Only | Print | Product List | Glossary On
Versions: 1 2 3 4 5 6 7 8 9 10 11 12 13 14 15 16 17 18 19 20 21 22 23 24 25 26 27 28 29 30 31 32 33 34 35 36 37 38 39 40 41 42 43 44 45 46 47 48 49 50
000
ASUS44 KSJT 240910
RWRSJT
WEST CENTRAL TEXAS REGIONAL WEATHER ROUNDUP
NATIONAL WEATHER SERVICE SAN ANGELO TX
400 AM CDT TUE APR 24 2018

NOTE: "FAIR" INDICATES FEW OR NO CLOUDS BELOW 12,000 FEET WITH NO
SIGNIFICANT WEATHER AND/OR OBSTRUCTIONS TO VISIBILITY.

TXZ049-054-064>066-071>073-076>078-098-099-113-114-127-128-139-140-
154-155-168>170-241000
...LOCATIONS ACROSS WEST CENTRAL TEXAS...

CITY           SKY/WX    TMP DP  RH WIND       PRES   REMARKS
SAN ANGELO     CLEAR     56  42  59 N6        30.02S
ABILENE        CLEAR     58  47  66 SE13      30.04F
DYESS AFB      CLEAR     60  43  54 SE9       30.04F
JUNCTION       CLEAR     56  46  69 W3        30.03F
SWEETWATER     CLEAR     59  44  57 SE10      30.06F
BROWNWOOD      PTCLDY    55  46  71 N3        30.06S
COLEMAN        SUNNY     56  44  63 N5        30.06S
SONORA         CLEAR     59  46  63 CALM      30.07S
OZONA          FAIR      52  43  71 CALM      30.05S
BRADY          PTCLDY    59  43  55 E9        30.05R
$$

TEXAS PANHANDLE/OKLAHOMA PANHANDLE

CITY           SKY/WX    TMP DP  RH WIND       PRES   REMARKS
AMARILLO       CLEAR     51  42  71 S13       30.06R
BORGER         CLEAR     55  43  63 SE7       30.05S
CANADIAN       CLEAR     50  45  83 CALM      30.07R
DALHART        CLEAR     49  42  77 SE9       30.04F
DUMAS          SUNNY     50  41  72 SE12      30.05S
GUYMON         NOT AVBL
HEREFORD       SUNNY     54  40  60 S8        30.07S
PAMPA          SUNNY     55  44  67 SE14      30.07R
PERRYTON       CLEAR     50  44  80 SE7       30.06S
$$

SOUTHERN PANHANDLE/SOUTH PLAINS/ROLLING PLAINS

CITY           SKY/WX    TMP DP  RH WIND       PRES   REMARKS
LUBBOCK        CLEAR     54  38  54 SE9       30.05R
SNYDER         CLEAR     58  40  51 E6        30.04F
CHILDRESS      CLEAR     53  43  68 SE7       30.07R
SEMINOLE       SUNNY     54  37  52 NE3       30.04S
$$

PERMIAN BASIN

CITY           SKY/WX    TMP DP  RH WIND       PRES   REMARKS
MIDLAND        CLEAR     60  40  47 SE6       30.00F
ODESSA         CLEAR     60  42  51 SE7       30.01F
WINK           CLEAR     62  45  53 E7        29.98F
$$

FAR WEST/SOUTHWEST MOUNTAINS/TRANS PECOS

CITY           SKY/WX    TMP DP  RH WIND       PRES   REMARKS
ALPINE         SUNNY     60  41  48 SW7       30.15S
DRYDEN           N/A     63  50  62 N7        29.99F
EL PASO        PTCLDY    65  26  23 S5        30.01S
FORT STOCKTON  CLEAR     65  50  58 S14       30.00F
GUADALUPE PASS CLEAR     67  31  26 SW8       30.13F
MARFA          CLEAR     48  31  51 N3        30.14S
PECOS          SUNNY     60  41  50 E3        29.97F
$$

DALLAS/FORT WORTH METROPLEX

CITY           SKY/WX    TMP DP  RH WIND       PRES   REMARKS
DFW AIRPORT    CLEAR     59  52  77 N3        30.02R
FTW MEACHAM    CLEAR     57  54  89 W3        30.03R
DAL-EXECUTIVE  CLEAR     57  52  83 CALM      30.02S
GRAND PRAIRIE  CLEAR     57  51  79 CALM      30.05R
ADDISON        CLEAR     57  52  82 CALM      30.05S
MESQUITE       SUNNY     53  51  94 CALM      30.03S
LANCASTER      SUNNY     53  51  92 CALM      30.04S
$$

NORTH CENTRAL TEXAS

CITY           SKY/WX    TMP DP  RH WIND       PRES   REMARKS
SHRMAN/DENISON SUNNY     50  48  91 CALM      30.04S
GAINESVILLE    CLEAR     50  47  92 CALM      30.06R
BRIDGEPORT     SUNNY     51  51 100 SW5       30.06R
DENTON         CLEAR     51  50  96 CALM      30.03S
WAXAHACHIE     SUNNY     54  54  99 CALM      30.04S
GRANBURY       SUNNY     52  49  89 CALM      30.07R
$$

WESTERN NORTH TEXAS

CITY           SKY/WX    TMP DP  RH WIND       PRES   REMARKS
WICHITA FALLS  CLEAR     53  47  79 CALM      30.03S
VERNON         SUNNY     53  46  76 CALM      30.05S
BRECKENRIDGE   SUNNY     57  46  68 SE3       30.05S
COMANCHE       CLEAR     56  49  75 S6        30.07S
$$

CENTRAL AND SOUTH CENTRAL TEXAS

CITY           SKY/WX    TMP DP  RH WIND       PRES   REMARKS
AUSTIN/BERGSTM CLEAR     51  50  96 CALM      30.04S
WACO           CLEAR     56  53  90 SW9       30.05F
HILLSBORO      SUNNY     54  54  99 CALM      30.05R
TEMPLE         CLEAR     54  51  90 N3        30.06F
KILLEEN-GRAY   NOT AVBL
FORT HOOD      CLEAR     60  51  71 CALM      30.02S
GEORGETOWN     CLEAR     55  49  80 S3        30.06
LAGO VISTA     FAIR      64  51  62 E6        30.06S
SAN MARCOS     CLEAR     55  48  77 N5        30.04S
NEW BRAUNFELS  CLEAR     55  51  86 N3        30.01F
RANDOLPH AFB   CLEAR     57  53  85 NW3       30.02F
SAN ANTONIO    PTCLDY    61  53  75 CALM      30.03S
STINSON        CLEAR     59  54  83 CALM      30.00F
PLEASANTON     NOT AVBL
LA GRANGE      CLEAR     57  56  95 CALM      30.02S
GIDDINGS       SUNNY     54  53  95 CALM      30.05S
$$

EAST TEXAS

CITY           SKY/WX    TMP DP  RH WIND       PRES   REMARKS
PARIS          CLEAR     52  49  89 W3        30.03R
CLARKSVILLE    NOT AVBL
TYLER          CLEAR     53  51  93 CALM      30.02S
LONGVIEW       CLEAR     54  53  97 CALM      30.00S
PALESTINE      SUNNY     52  51  99 CALM      30.03S
NACOGDOCHES      N/A     48  47  96 CALM      30.02F
$$

TEXAS HILL COUNTRY AND EDWARDS PLATEAU

CITY           SKY/WX    TMP DP  RH WIND       PRES   REMARKS
LLANO          SUNNY     59  48  67 CALM      30.07F
HORSESHOE BAY  FAIR      57  50  78 CALM      30.05S
KERRVILLE      CLEAR     54  48  82 CALM      30.04S
FREDERICKSBRG  CLEAR     50  44  80 CALM      30.04S
ROCKSPRINGS    SUNNY     63  50  63 S8        30.09F
HONDO          CLEAR     57  50  77 N6        30.02F
UVALDE         SUNNY     56  49  77 NE5       30.03S
DEL RIO        CLEAR     67  54  63 E8        29.99S
$$

SOUTHEAST TEXAS

CITY           SKY/WX    TMP DP  RH WIND       PRES   REMARKS
COLLEGE STN    CLEAR     59  55  87 CALM      30.04F
CALDWELL       SUNNY     55  53  94 CALM      30.05S
CROCKETT       SUNNY     50  48  93 CALM      30.06R
BRENHAM        CLEAR     56  55  98 CALM      30.05S
HUNTSVILLE     CLEAR     56  53  90 CALM      30.04R
CONROE         CLEAR     51  51 100 CALM      30.04S
HOUSTON BUSH   FAIR      59  56  89 CALM      30.03F
HOUSTON HOBBY  FAIR      59  57  93 CALM      30.02F
PERLAND        FAIR      58  56  93 CALM      30.04S
WHARTON        SUNNY     57  55  94 CALM      30.03F
$$

THE UPPER TEXAS COAST

CITY           SKY/WX    TMP DP  RH WIND       PRES   REMARKS
ORANGE         FAIR      53  53 100 CALM      30.03S FOG
PORT ARTHUR    FAIR      53  52  96 NW3       30.01S
GALVESTON      FAIR      66  63  90 NW5       30.03S
ANGLETON       FAIR      56  54  93 CALM      30.02F
BAY CITY       FAIR      60  59  97 CALM      30.03S
$$

TEXAS COASTAL BEND, RIO GRANDE PLAINS DEEP SOUTH TEXAS

CITY           SKY/WX    TMP DP  RH WIND       PRES   REMARKS
VICTORIA       CLEAR     57  54  89 NE7       30.02S
BEEVILLE       FAIR      59  55  84 CALM      30.01S
ROCKPORT         N/A     61  59  93 SW5       30.00F
PORT ARANSAS   NOT AVBL
PORT LAVACA    SUNNY     58  56  91 N3        30.02S
CORPUS CHRISTI PTCLDY    57  56  96 N5        30.00F
KINGSVILLE NAS CLEAR     56  54  93 CALM      30.00F
COTULLA        CLEAR     62  52  69 SE5       30.00S
LAREDO         CLEAR     68  58  70 S7        30.00F
BROWNSVILLE    FAIR      69  65  86 CALM      30.01F
PORT ISABEL    FAIR      63  60  90 SW5       30.00F
HEBBRONVILLE   SUNNY     60  53  76 CALM      30.02R
MCALLEN        PTCLDY    69  65  86 E5        30.00F
WESLACO        NOT AVBL
FALFURRIAS     SUNNY     59  53  82 NE3       30.00S
EDINBURG       SUNNY     62  59  90 CALM      30.01F
$$



USA.gov is the U.S. government's official web portal to all federal, state and local government web resources and services.